Tracking 30995 objects as of 5-Jul-2025
HD Live streaming from Space Station
objects crossing your sky now

CAPE 1

Track CAPE 1 now!
10-day predictions
CAPE 1 is classified as:


NORAD ID: 31130
Int'l Code: 2007-012P
Perigee: 627.8 km
Apogee: 750.5 km
Inclination: 98.4 °
Period: 98.4 minutes
Semi major axis: 7060 km
RCS: 0.0406 m2 (small)
Launch date: April 17, 2007
Source: United States (US)
Launch site: TYURATAM MISSILE AND SPACE COMPLEX (TTMTR)

Uplink (MHz):
Downlink (MHz): 435.245
Beacon (MHz): 435.248
Mode: 1200bps AFSK
Call sign: K5USL
Status: Inactive

Your satellite tracking list
ELYUSIUM/LOWER FREE FLYE
Track 1 satellite(s)




NASA's NSSDC Master Catalog

Two Line Element Set (TLE):
1 31130U 07012P   25186.36166421  .00001398  00000-0  26561-3 0  9993
2 31130  98.3990 147.9006 0086887  73.6128 287.4604 14.63451187967596
Source of the keplerian elements: AFSPC